Waarnemingen

Advertentie
Mijn weer
Stornoway, Groot Brittannië (3026): temperatuur & dauwpunt: 26.03.2020 15:00:00 - 01.04.2020 15:00:00 (BST)Stornoway, Groot Brittannië (3026): temperatuur -20cm & temperatuur -100cm: 26.03.2020 15:00:00 - 01.04.2020 15:00:00 (BST)Stornoway, Groot Brittannië (3026): windsnelheid & windstoten: 26.03.2020 15:00:00 - 01.04.2020 15:00:00 (BST)Stornoway, Groot Brittannië (3026): windrichting: 26.03.2020 15:00:00 - 01.04.2020 15:00:00 (BST)Stornoway, Groot Brittannië (3026): luchtdruk: 26.03.2020 15:00:00 - 01.04.2020 15:00:00 (BST)Stornoway, Groot Brittannië (3026): zicht: 26.03.2020 15:00:00 - 01.04.2020 15:00:00 (BST)Stornoway, Groot Brittannië (3026): Zonneschijnduur: 26.03.2020 15:00:00 - 01.04.2020 15:00:00 (BST)Stornoway, Groot Brittannië (3026): neerslag: 26.03.2020 15:00:00 - 01.04.2020 15:00:00 (BST)
Datum & Tijd tt [°C] td [°C] tt -20cm [°C] tt -100cm [°C] ff [km/u] ff [kn] fx [km/u] fx [kn] dd ppp [hPa] vv [km] sd [min] rr [mm]
01.04.2020 15:00:00 9,3 5,7 - - 37 20 54 29 WNW 1016,6 21 12 0,0
01.04.2020 14:00:00 9,6 7,2 - - 41 22 54 29 NW 1016,6 35 24 0,0
01.04.2020 13:00:00 9,0 7,6 - - 37 20 52 28 WNW 1016,7 16 0 0,0
01.04.2020 12:00:00 8,9 7,9 - - 35 19 52 28 W 1017,2 20 0 0,0
01.04.2020 11:00:00 8,1 7,5 - - 34 18 48 26 W 1017,7 9 0 0,8
01.04.2020 10:00:00 7,2 6,3 6,0 5,7 29 16 50 27 W 1018,3 11 0 0,2
01.04.2020 09:00:00 7,1 5,5 - - 34 18 50 27 W 1018,9 14 0 0,2
01.04.2020 08:00:00 7,0 4,9 - - 31 17 - - W 1019,7 24 0 0,0
01.04.2020 07:00:00 6,0 3,7 - - 28 15 - - W 1020,4 35 0 0,0
01.04.2020 06:00:00 6,2 3,6 - - 26 14 - - W 1021,5 40 0 0,0
01.04.2020 05:00:00 6,4 4,2 - - 24 13 - - W 1022,5 9 0 0,0
01.04.2020 04:00:00 6,2 3,8 - - 21 11 - - W 1023,4 40 0 0,0
01.04.2020 03:00:00 5,9 4,0 - - 18 10 - - WZW 1024,5 40 0 0,0
01.04.2020 02:00:00 6,0 4,2 - - 21 11 - - W 1025,5 35 0 0,0
01.04.2020 01:00:00 5,6 3,7 - - 22 12 - - W 1026,6 55 - 0,2
01.04.2020 00:00:00 4,8 3,3 - - 16 9 - - WZW 1027,5 45 0 0,2
31.03.2020 23:00:00 5,4 3,4 - - 22 12 - - W 1028,7 19 0 0,0
31.03.2020 22:00:00 5,8 3,3 - - 21 11 - - WNW 1029,5 75 0 0,0
31.03.2020 21:00:00 6,1 3,3 - - 15 8 - - W 1030,1 55 0 0,0
31.03.2020 20:00:00 6,7 3,5 - - 16 9 - - W 1030,5 35 0 0,0
31.03.2020 19:00:00 6,9 3,3 - - 31 17 - - WNW 1031,4 45 0 0,0
31.03.2020 18:00:00 8,4 3,2 - - 28 15 - - WNW 1031,6 40 0 0,0
31.03.2020 17:00:00 8,3 3,8 - - 31 17 - - WNW 1032,2 30 0 -
31.03.2020 16:00:00 8,6 4,4 - - 29 16 - - WNW 1032,6 30 0 0,0
31.03.2020 15:00:00 9,2 4,5 - - 31 17 - - NW 1033,1 30 0 0,0
31.03.2020 14:00:00 9,0 5,0 - - 29 16 - - WNW 1033,6 35 0 0,0
31.03.2020 13:00:00 8,2 4,8 - - 29 16 - - WNW 1034,1 45 0 0,0
31.03.2020 12:00:00 7,5 4,4 - - 29 16 - - WNW 1034,8 9 0 0,0
31.03.2020 11:00:00 7,7 4,4 - - 21 11 - - W 1035,1 50 0 0,0
31.03.2020 10:00:00 7,0 5,5 5,7 5,7 21 11 - - W 1035,5 35 0 0,0
31.03.2020 09:00:00 5,6 4,6 - - 11 6 - - W 1035,9 45 0 0,2
31.03.2020 08:00:00 5,3 4,4 - - 11 6 - - W 1036,1 50 0 0,0
31.03.2020 07:00:00 4,6 3,7 - - 15 8 - - WNW 1036,5 65 0 0,0
31.03.2020 06:00:00 4,7 3,9 - - 11 6 - - NW 1036,5 45 0 0,2
31.03.2020 05:00:00 5,5 4,8 - - 13 7 - - WNW 1036,6 50 0 0,0
31.03.2020 04:00:00 4,8 4,0 - - 13 7 - - W 1037,0 65 0 0,0
31.03.2020 03:00:00 5,1 4,2 - - 13 7 - - W 1037,3 65 0 0,0
31.03.2020 02:00:00 5,4 4,8 - - 11 6 - - W 1037,9 8 0 0,2
31.03.2020 01:00:00 4,7 3,9 - - 11 6 - - W 1038,2 55 - 0,0
31.03.2020 00:00:00 5,5 4,7 - - 13 7 - - W 1038,7 7 0 0,0
30.03.2020 23:00:00 4,8 4,0 - - 9 5 - - WNW 1038,9 17 0 0,2
30.03.2020 22:00:00 4,9 4,1 - - 15 8 - - WNW 1039,2 35 0 0,0
30.03.2020 21:00:00 5,1 4,0 - - 11 6 - - NW 1039,4 30 0 0,0
30.03.2020 20:00:00 6,2 4,8 - - 15 8 - - NNW 1039,5 35 0 0,2
30.03.2020 19:00:00 7,4 4,2 - - 16 9 - - NW 1039,6 28 0 0,0
30.03.2020 18:00:00 6,9 4,2 - - 16 9 - - NNW 1039,8 30 0 0,0
30.03.2020 17:00:00 7,3 3,0 - - 28 15 - - NNW 1040,0 35 0 0,0
30.03.2020 16:00:00 7,2 3,9 - - 21 11 - - NW 1040,4 20 0 0,0
30.03.2020 15:00:00 8,3 3,1 - - 26 14 - - NNW 1040,6 35 0 0,0
30.03.2020 14:00:00 7,9 3,3 - - 29 16 - - NNW 1041,0 30 0 0,0
30.03.2020 13:00:00 8,3 2,7 - - 28 15 - - NNW 1041,1 30 0 0,0
30.03.2020 12:00:00 7,8 3,8 - - 26 14 - - NNW 1041,3 26 0 0,0
30.03.2020 11:00:00 7,4 4,3 - - 18 10 - - NNW 1041,7 16 0 0,0
30.03.2020 10:00:00 7,2 4,1 5,7 5,7 24 13 - - NNW 1042,1 22 0 0,0
30.03.2020 09:00:00 7,2 3,6 - - 21 11 - - NNW 1042,3 23 0 0,0
30.03.2020 08:00:00 6,8 3,6 - - 26 14 - - NW 1042,4 24 0 0,0
30.03.2020 07:00:00 6,6 4,0 - - 11 6 - - NNW 1042,4 21 0 0,0
30.03.2020 06:00:00 6,6 4,2 - - 16 9 - - NNW 1042,4 24 0 0,0
30.03.2020 05:00:00 6,7 4,2 - - 22 12 - - NW 1042,7 11 0 0,0
30.03.2020 04:00:00 6,9 4,6 - - 24 13 - - NNW 1043,1 23 0 0,0
30.03.2020 03:00:00 6,2 4,5 - - 15 8 - - NW 1043,7 20 0 0,0
30.03.2020 02:00:00 6,8 4,9 - - 22 12 - - N 1044,2 12 0 0,0
30.03.2020 01:00:00 7,3 4,6 - - 24 13 - - NNW 1044,7 23 - 0,0
30.03.2020 00:00:00 7,4 4,6 - - 24 13 - - NNW 1045,0 21 0 0,0
29.03.2020 23:00:00 7,3 5,2 - - 18 10 - - NNW 1045,3 19 0 0,0
29.03.2020 22:00:00 7,3 4,9 - - 28 15 - - NNW 1045,6 15 0 0,0
29.03.2020 21:00:00 7,1 5,0 - - 26 14 - - NNW 1045,9 21 0 0,0
29.03.2020 20:00:00 7,4 4,6 - - 28 15 - - NW 1045,8 23 0 0,0
29.03.2020 19:00:00 7,5 4,3 - - 31 17 - - NW 1046,2 18 0 0,0
29.03.2020 18:00:00 7,7 3,2 - - 37 20 48 26 NW 1046,5 28 0 0,0
29.03.2020 17:00:00 7,6 2,9 - - 31 17 50 27 NW 1046,9 30 0 0,0
29.03.2020 16:00:00 7,6 2,5 - - 35 19 50 27 NW 1047,5 35 0 0,0
29.03.2020 15:00:00 8,6 2,5 - - 39 21 55 30 NW 1047,9 45 24 0,0
29.03.2020 14:00:00 8,9 1,5 - - 35 19 48 26 NW 1048,3 50 12 0,0
29.03.2020 13:00:00 7,9 1,9 - - 37 20 48 26 NW 1048,9 45 0 0,0
29.03.2020 12:00:00 7,0 1,1 - - 29 16 - - NW 1049,1 40 0 0,0
29.03.2020 11:00:00 7,1 0,2 - - 22 12 - - WNW 1049,3 75 0 0,0
29.03.2020 10:00:00 5,7 -0,5 5,7 5,7 16 9 - - W 1049,5 75 0 0,0
29.03.2020 09:00:00 4,1 -1,3 - - 11 6 - - WNW 1049,9 75 0 0,0
29.03.2020 08:00:00 2,5 -1,5 - - 11 6 - - WNW 1049,7 75 0 0,0
29.03.2020 07:00:00 2,3 -1,3 - - 8 4 - - WNW 1049,5 75 0 0,0
29.03.2020 06:00:00 2,2 -1,4 - - 9 5 - - NW 1049,9 70 0 0,0
29.03.2020 05:00:00 2,0 -2,1 - - 9 5 - - WNW 1050,0 65 0 0,0
29.03.2020 04:00:00 2,2 -1,9 - - 8 4 - - WNW 1050,2 65 0 0,0
29.03.2020 03:00:00 4,0 -2,2 - - 11 6 - - NNO 1050,3 35 0 0,0
29.03.2020 02:00:00 4,1 -2,5 - - 18 10 - - NNO 1050,3 40 0 0,0
29.03.2020 01:00:00 3,9 -3,4 - - 21 11 - - N 1050,2 35 - 0,0
29.03.2020 00:00:00 4,2 -4,3 - - 22 12 - - NO 1049,8 55 0 0,0
28.03.2020 23:00:00 4,2 -3,7 - - 24 13 - - NNO 1049,7 50 0 0,0
28.03.2020 22:00:00 4,0 -4,5 - - 28 15 46 25 NNO 1049,3 45 0 0,0
28.03.2020 21:00:00 4,3 -3,2 - - 29 16 48 26 NO 1048,8 30 0 0,0
28.03.2020 20:00:00 4,3 -2,8 - - 34 18 46 25 NO 1048,2 30 6 0,0
28.03.2020 19:00:00 4,6 -1,0 - - 29 16 - - NO 1047,5 26 6 0,0
28.03.2020 18:00:00 4,7 -1,9 - - 31 17 48 26 NO 1046,8 26 0 0,0
28.03.2020 17:00:00 4,8 -1,3 - - 35 19 55 30 NO 1046,5 35 0 0,0
28.03.2020 16:00:00 3,0 0,1 - - 41 22 55 30 NO 1046,3 6 42 0,2
28.03.2020 15:00:00 5,7 0,7 - - 35 19 50 27 NO 1045,9 30 54 0,0
28.03.2020 14:00:00 6,0 -3,8 - - 35 19 48 26 NO 1045,5 50 60 0,0
28.03.2020 13:00:00 6,1 -1,2 - - 37 20 50 27 NO 1044,9 30 24 0,0
28.03.2020 12:00:00 5,8 -0,8 - - 37 20 48 26 NO 1044,3 35 24 0,0
28.03.2020 11:00:00 5,1 0,6 - - 31 17 46 25 NNO 1043,5 35 0 0,0
28.03.2020 10:00:00 5,4 0,3 5,9 5,7 34 18 - - NNO 1042,6 35 0 0,0
28.03.2020 09:00:00 4,9 0,3 - - 24 13 - - N 1041,9 30 0 0,0
28.03.2020 08:00:00 4,4 0,7 - - 34 18 - - N 1041,1 28 6 0,0
28.03.2020 07:00:00 4,6 0,3 - - 26 14 - - N 1040,3 28 0 0,0
28.03.2020 06:00:00 5,2 2,3 - - 24 13 - - NNO 1039,6 24 0 0,0
28.03.2020 05:00:00 4,7 2,4 - - 24 13 - - N 1039,4 26 0 0,0
28.03.2020 04:00:00 4,1 1,5 - - 11 6 - - NNW 1039,1 35 0 0,0
28.03.2020 03:00:00 4,9 1,5 - - 18 10 - - N 1038,9 29 0 0,0
28.03.2020 02:00:00 4,3 2,4 - - 15 8 - - N 1038,2 26 0 0,0
28.03.2020 01:00:00 4,4 3,0 - - 13 7 - - N 1037,9 28 - 0,0
28.03.2020 00:00:00 4,7 3,7 - - 11 6 - - NW 1037,3 30 0 0,0
27.03.2020 23:00:00 4,0 3,1 - - 13 7 - - NNW 1036,8 29 0 0,0
27.03.2020 22:00:00 5,6 4,5 - - 11 6 - - NNW 1036,3 35 0 0,0
27.03.2020 21:00:00 5,6 3,6 - - 15 8 - - NW 1035,7 35 0 0,0
27.03.2020 20:00:00 6,7 3,2 - - 9 5 - - WNW 1035,1 45 30 0,0
27.03.2020 19:00:00 8,3 3,3 - - 16 9 - - NW 1034,5 45 30 0,0
27.03.2020 18:00:00 9,2 2,6 - - 18 10 - - NNW 1034,2 50 30 0,0
27.03.2020 17:00:00 10,3 3,6 - - 22 12 - - NNW 1033,8 55 36 0,0
27.03.2020 16:00:00 10,4 3,6 - - 13 7 - - N 1033,8 70 30 0,0
27.03.2020 15:00:00 9,0 4,0 - - 8 4 - - NO 1033,6 55 24 0,0
27.03.2020 14:00:00 9,0 3,4 - - 11 6 - - NO 1033,5 65 24 0,0
27.03.2020 13:00:00 8,8 5,2 - - 11 6 - - NNO 1033,3 60 18 0,0
27.03.2020 12:00:00 9,1 4,0 - - 13 7 - - N 1032,9 60 36 0,0
27.03.2020 11:00:00 8,7 3,8 - - 13 7 - - N 1032,5 70 54 0,0
27.03.2020 10:00:00 7,6 5,3 5,7 5,5 4 2 - - N 1031,9 60 60 0,0
27.03.2020 09:00:00 4,8 3,3 - - 5 3 - - WNW 1031,4 70 24 0,0
27.03.2020 08:00:00 3,6 2,3 - - 8 4 - - WNW 1030,9 60 0 0,0
27.03.2020 07:00:00 3,0 1,7 - - 5 3 - - WNW 1030,5 75 0 0,0
27.03.2020 06:00:00 2,7 1,4 - - 8 4 - - W 1029,9 75 0 0,0
27.03.2020 05:00:00 3,1 1,9 - - 5 3 - - WZW 1029,8 70 0 0,0
27.03.2020 04:00:00 3,3 2,3 - - 4 2 - - ZW 1029,8 55 0 0,0
27.03.2020 03:00:00 1,5 0,4 - - 5 3 - - NW 1030,0 55 0 0,0
27.03.2020 02:00:00 2,3 1,2 - - 5 3 - - ZW 1029,7 50 0 0,0
27.03.2020 01:00:00 2,3 1,3 - - 8 4 - - W 1029,4 50 - 0,0
27.03.2020 00:00:00 2,7 1,8 - - 4 2 - - WZW 1029,1 35 0 0,0
26.03.2020 23:00:00 1,6 0,3 - - 5 3 - - WNW 1029,0 24 0 0,0
26.03.2020 22:00:00 2,9 1,1 - - 5 3 - - WNW 1029,1 30 0 0,0
26.03.2020 21:00:00 5,3 3,2 - - 2 1 - - WZW 1029,2 50 0 0,0
26.03.2020 20:00:00 6,0 3,2 - - 4 2 - - ZO 1028,8 30 18 0,0
26.03.2020 19:00:00 7,1 3,8 - - 9 5 - - ZZO 1028,3 35 6 0,0
26.03.2020 18:00:00 7,4 3,7 - - 9 5 - - O 1028,2 75 0 0,2
26.03.2020 17:00:00 7,7 3,9 - - 8 4 - - NO 1028,3 26 0 0,0
26.03.2020 16:00:00 9,0 2,7 - - 11 6 - - W 1028,2 75 6 0,0
26.03.2020 15:00:00 - - - - - - - - - - - - -

tt = temperatuur
td = dauwpunt
tt -20cm = temperatuur -20cm
tt -100cm = temperatuur -100cm
ff = windsnelheid
fx = windstoten
dd = windrichting
ppp = luchtdruk
vv = zicht
sd = Zonneschijnduur
rr = neerslag

Weerstations in de omgeving